Gallup, NM

5:44 AM MST on November 18, 2017 (GMT -0700)
Gallup Municipal

Weather History for KGUP - December, 2013

Change the Weather History Date:

Wednesday, December 4, 2013

  Actual Average Record
Temperature  
Mean Temperature 35 °F -  
Max Temperature 44 °F 44 °F 63 °F (1979)
Min Temperature 25 °F 15 °F -2 °F (1991)
Degree Days  
Heating Degree Days 30    
Moisture  
Dew Point 26 °F    
Average Humidity 73    
Maximum Humidity 93    
Minimum Humidity 49    
Precipitation  
Precipitation 0.03 in - - ()
Sea Level Pressure  
Sea Level Pressure 29.68 in    
Wind  
Wind Speed 22 mph (WSW)    
Max Wind Speed 36 mph    
Max Gust Speed 51 mph    
Visibility 6 miles    
Events Fog , Rain , Snow    
Averages and records for this station are not official NWS values.
T = Trace of Precipitation, MM = Missing Value Source: NWS Daily Summary

Daily Weather History Graph

Daily Weather History Graph

Search for Another Location

Airport or City:

Trip Planner

Search our weather history database for the weather conditions in past years. The results will help you decide how hot, cold, wet, or windy it might be!

Date:

Astronomy

Dec. 04, 2013 Rise Set
Actual Time 7:08 AM MST 5:02 PM MST
Civil Twilight 6:40 AM MST 5:30 PM MST
Nautical Twilight 6:09 AM MST 6:01 PM MST
Astronomical Twilight 5:38 AM MST 6:32 PM MST
Moon 8:41 AM MST (12/4) 7:14 PM MST (12/4)
Length of Visible Light 10h 49m
Length of Day
9h 53m
Waxing Crescent, 5% of the Moon is Illuminated
Dec 4
Waxing Crescent
Dec 9
First Quarter
Dec 17
Full
Dec 25
Last Quarter
Jan 1
New

Hourly Weather History & Observations

Time (MST) Temp. Windchill Dew Point Humidity Pressure Visibility Wind Dir Wind Speed Gust Speed Precip Events Conditions
12:53 AM 41.0 °F 30.9 °F 26.1 °F 55% 29.49 in 10.0 mi SSW 24.2 mph 32.2 mph N/A   Clear
1:53 AM 42.1 °F 32.1 °F 28.0 °F 58% 29.46 in 10.0 mi SW 25.3 mph 38.0 mph N/A   Clear
2:53 AM 42.1 °F 32.3 °F 26.1 °F 53% 29.44 in 10.0 mi SW 24.2 mph 39.1 mph N/A   Clear
3:53 AM 42.1 °F 31.1 °F 27.0 °F 55% 29.45 in 10.0 mi SW 31.1 mph 43.7 mph N/A   Clear
4:53 AM 41.0 °F 29.8 °F 26.1 °F 55% 29.45 in 10.0 mi SW 29.9 mph 47.2 mph N/A   Clear
5:53 AM 39.9 °F 28.6 °F 23.0 °F 51% 29.48 in 10.0 mi SW 28.8 mph 36.8 mph N/A   Clear
6:53 AM 41.0 °F 29.3 °F 23.0 °F 49% 29.48 in 10.0 mi SW 33.4 mph 42.6 mph N/A   Clear
7:53 AM 41.0 °F 29.7 °F 24.1 °F 51% 29.49 in 10.0 mi SW 31.1 mph 41.4 mph N/A   Clear
8:53 AM 41.0 °F 29.5 °F 26.1 °F 55% 29.55 in 10.0 mi SW 32.2 mph 43.7 mph N/A   Partly Cloudy
9:53 AM 42.1 °F 31.0 °F 27.0 °F 55% 29.55 in 10.0 mi SW 32.2 mph 46.0 mph N/A   Scattered Clouds
10:53 AM 44.1 °F 34.4 °F 27.0 °F 51% 29.55 in 10.0 mi SW 27.6 mph 50.6 mph N/A   Overcast
11:53 AM 44.1 °F 33.2 °F 28.0 °F 53% 29.55 in 10.0 mi SW 35.7 mph 48.3 mph N/A   Overcast
12:53 PM 39.9 °F 29.2 °F 30.9 °F 70% 29.57 in 10.0 mi WSW 25.3 mph 48.3 mph 0.00 in Rain Light Rain
1:08 PM 35.1 °F 23.0 °F 30.9 °F 85% 29.69 in 3.0 mi West 24.2 mph 36.8 mph 0.01 in Snow Light Snow
1:15 PM 34.0 °F 22.1 °F 30.9 °F 89% 29.70 in 1.8 mi West 21.9 mph 32.2 mph 0.01 in Snow Light Snow
1:24 PM 34.0 °F 22.4 °F 30.0 °F 85% 29.70 in 0.8 mi West 20.7 mph 28.8 mph 0.01 in Snow Light Snow
1:32 PM 33.1 °F 21.2 °F 30.0 °F 89% 29.71 in 1.0 mi West 20.7 mph - 0.01 in Snow Light Snow
1:42 PM 33.1 °F 22.6 °F 30.9 °F 92% 29.71 in 2.0 mi West 16.1 mph - 0.01 in Snow Light Snow
1:49 PM 32.0 °F 20.5 °F 28.4 °F 87% 29.72 in 0.8 mi NW 18.4 mph - 0.01 in Snow Light Snow
1:53 PM 30.0 °F 18.3 °F 28.0 °F 92% 29.69 in 0.5 mi WNW 17.3 mph - 0.01 in Fog , Snow Snow
2:02 PM 30.0 °F 17.9 °F 27.0 °F 88% 29.74 in 0.5 mi West 18.4 mph - 0.00 in Fog , Snow Snow
2:12 PM 30.0 °F 17.9 °F 27.0 °F 88% 29.74 in 0.5 mi West 18.4 mph - 0.00 in Fog , Snow Snow
2:20 PM 30.0 °F 19.5 °F 27.0 °F 88% 29.74 in 0.5 mi West 13.8 mph - 0.01 in Fog , Snow Snow
2:50 PM 28.4 °F 18.5 °F 26.6 °F 93% 29.76 in 0.2 mi WSW 11.5 mph - 0.02 in Fog , Snow Snow
2:53 PM 28.9 °F 19.2 °F 27.0 °F 92% 29.73 in 0.5 mi WSW 11.5 mph - 0.02 in Fog , Snow Snow
3:05 PM 30.0 °F 20.5 °F 27.0 °F 88% 29.76 in 2.0 mi SW 11.5 mph - 0.00 in Snow Light Snow
3:14 PM 30.0 °F 20.5 °F 26.1 °F 85% 29.77 in 4.0 mi WSW 11.5 mph - 0.00 in Snow Light Snow
3:53 PM 30.0 °F 20.0 °F 26.1 °F 85% 29.75 in 6.0 mi West 12.7 mph 17.3 mph 0.00 in Snow Light Snow
4:10 PM 30.0 °F 22.4 °F 25.0 °F 82% 29.79 in 2.5 mi WSW 8.1 mph - 0.00 in Snow Light Snow
4:18 PM 30.0 °F 21.7 °F 24.1 °F 79% 29.79 in 8.0 mi WSW 9.2 mph - 0.00 in Snow Light Snow
4:53 PM 30.0 °F 19.1 °F 23.0 °F 75% 29.77 in 7.0 mi West 15.0 mph - 0.00 in Snow Light Snow
5:53 PM 30.0 °F 22.4 °F 21.9 °F 72% 29.80 in 10.0 mi WSW 8.1 mph - 0.00 in   Overcast
6:53 PM 28.9 °F 19.2 °F 19.0 °F 67% 29.83 in 10.0 mi West 11.5 mph - N/A   Overcast
7:53 PM 28.9 °F 23.9 °F 19.0 °F 67% 29.85 in 10.0 mi WNW 4.6 mph - N/A   Overcast
8:53 PM 28.0 °F 22.8 °F 19.0 °F 69% 29.86 in 10.0 mi NNW 4.6 mph - N/A   Overcast
9:53 PM 27.0 °F 23.0 °F 18.0 °F 69% 29.86 in 10.0 mi West 3.5 mph - N/A   Overcast
10:53 PM 26.1 °F 19.4 °F 21.9 °F 84% 29.86 in 10.0 mi North 5.8 mph - N/A   Overcast
11:53 PM 25.0 °F 14.8 °F 19.9 °F 81% 29.85 in 10.0 mi NE 10.4 mph - N/A   Overcast